Preview of NWS' New Version of Forecast
This preview is not operational and should not be used for support decisions.

Regional Weather Roundup (RWR)

Issued by National Weather Service (NWS)

                            
000
ASUS44 KJAN 201710
RWRMS 

MISSISSIPPI HOURLY WEATHER ROUNDUP
NATIONAL WEATHER SERVICE JACKSON MS
1200 PM CDT FRI SEP 20 2019

NOTE: "FAIR: INDICATES FEW OR NO CLOUDS BELOW 12,000 FEET WITH NO
SIGNIFICANT WEATHER AND/OR OBSTRUCTIONS TO VISIBILITY.

MSZ001>002-007>008-010>013-018>021-025>028-034>036-201800-
NORTHWEST MISSISSIPPI
  
CITY           SKY/WX    TMP DP  RH WIND       PRES   REMARKS
BATESVILLE     FAIR      86  64  48 SE14G20   30.17F                  
CLARKSDALE       N/A     86  73  66 SE13      30.16S HX  93           
CLEVELAND      CLOUDY    84  68  58 SE15      30.15F                  
GREENWOOD      LGT RAIN  86  62  44 SE10      30.17F                  
GREENVILLE     FAIR      85  70  60 S9        30.13F                  
OLIVE BRANCH   PTSUNNY   86  64  48 S14       30.18S                  
OXFORD         FAIR      82  59  44 S13       30.21S                  
TUNICA           N/A     82  70  65 S16       30.17S                  
WINONA         FAIR      83  62  49 SE8       30.19S                  
$$

MSZ003>006-009-014>017-022>024-029>033-037>039-201800-
NORTHEAST MISSISSIPPI
  
CITY           SKY/WX    TMP DP  RH WIND       PRES   REMARKS
ABERDEEN       FAIR      82  64  54 SE9G15    30.23F                  
COLUMBUS AFB   FAIR      82  61  48 SE13G18   30.22F                  
CORINTH        FAIR      84  57  39 S10G17    30.21F                  
GOLDN TRIANGLE FAIR      83  62  49 SE13      30.23S                  
STARKVILLE     FAIR     N/A N/A N/A SE8       30.23S                  
TUPELO         FAIR      84  59  42 SE10      30.21F                  
$$

MSZ040-058-201800-
CENTRAL MISSISSIPPI
  
CITY           SKY/WX    TMP DP  RH WIND       PRES   REMARKS
JACKSON INTL   PTSUNNY   85  61  44 SE14      30.17F                  
JACKSON HAWKNS FAIR      85  64  49 SE10      30.17F                  
MADISON        FAIR      82  63  51 SE6       30.19S                  
MERIDIAN KEY   FAIR      84  61  45 E8        30.20F                  
MERIDIAN NAS   FAIR      84  59  42 SE8G17    30.21F                  
RAYMOND        FAIR      86  68  54 SE7G18    30.16S                  
VICKSBURG VKS  MOSUNNY   86  70  58 SE8       30.14F HX  90           
$$

MSZ059>079-201800-
SOUTH MISSISSIPPI
  
CITY           SKY/WX    TMP DP  RH WIND       PRES   REMARKS
BROOKHAVEN     PTSUNNY   86  68  54 NE10G17   30.17F                  
HATTIESBURG    FAIR      84  65  52 E10G17    30.18F                  
LAUREL         SUNNY     85  62  47 E12G17    30.18F                  
MCCOMB         FAIR      87  69  54 SE12      30.15S HX  91           
NATCHEZ        FAIR      84  73  70 SE9       30.13F HX  91           
PINE BELT      FAIR      83  67  58 E10       30.19F                  
$$

MSZ080>082-201800-
COASTAL MISSISSIPPI
  
CITY           SKY/WX    TMP DP  RH WIND       PRES   REMARKS
BILOXI         FAIR      86  70  57 SE13G21   30.15S HX  90           
PASCAGOULA     FAIR      86  68  54 E10       30.16S                  
GULFPORT       FAIR      86  68  54 SE20G26   30.14F                  
$$

LAZ007>009-015>016-023>026-201800-
NORTHEAST LOUISIANA
  
CITY           SKY/WX    TMP DP  RH WIND       PRES   REMARKS
BASTROP        PTSUNNY   83  72  69 S7        30.12S                  
TALLULAH/VBURG PTSUNNY   86  70  58 SE15      30.14S HX  90           
VIDALIA        PTSUNNY  N/A N/A N/A E9        30.11F                  
$$